Regional Weather Roundup
Issued by NWS

Home | Current Version | Previous Version | Text Only | Print | Product List | Glossary On
Versions: 1 2 3 4 5 6 7 8 9 10 11 12 13 14 15 16 17 18 19 20 21 22 23 24 25 26 27 28 29 30 31 32 33 34 35 36 37 38 39 40 41 42 43 44 45 46 47 48 49 50
944
ASUS44 KLIX 280301
RWRLA
LOUISIANA WEATHER ROUNDUP
NATIONAL WEATHER SERVICE NEW ORLEANS LA
1000 PM CDT WED AUG 27 2014

NOTE: "FAIR" INDICATES FEW OR NO CLOUDS BELOW 12,000 FEET WITH NO
      SIGNIFICANT WEATHER AND/OR OBSTRUCTIONS TO VISIBILITY.
      SKY/WX - SKY CONDITION AND SIGNIFICANT WEATHER.
      TMP - AIR TEMPERATURE.    DP   - DEWPOINT TEMPERATURE.
      RH  - RELATIVE HUMIDITY.  PRES - PRESSURE.
      HX  - HEAT INDEX.         WCI  - WIND CHILL INDEX.

*  THESE STATIONS ARE NOT NWS OR FAA STATIONS AND ARE NOT UNDER
   NWS QUALITY CONTROL.

LAZ040-048-061>063-065-066-069-280400-
SOUTHEAST LOUISIANA

CITY           SKY/WX    TMP DP  RH WIND       PRES   REMARKS
N.O. AUDUBON   NOT AVBL
N.O. INTL ARPT MOCLDY    83  75  77 SE5       29.99R
N.O. LAKEFRONT MOCLDY    82  76  81 SE5       30.00R
N.O. DOWNTOWN* FAIR      82  73  74 SE3       30.00R
SLIDELL        MOCLDY    78  75  90 N5        30.00R
BATON ROUGE    PTCLDY    81  73  76 CALM      29.99S
BOOTHVILLE     MOCLDY    82  76  81 E3        29.99S
BELLE CHASSE   MOCLDY    80  75  84 CALM      29.98S
BOGALUSA*      CLOUDY    80  75  85 CALM      30.02R
GALLIANO*      NOT AVBL
NEW ROADS*     FAIR      78  75  90 CALM      29.99S
GONZALES*      FAIR      77  77 100 CALM      29.99R
HAMMOND*       NOT AVBL
HOUMA*         MOCLDY    76  72  85 CALM      29.99S
PORT FOURCHON* CLEAR     84  75  74 E9        30.00S

$$

LAZ041-044-053-054-280400-
SOUTHWEST LOUISIANA

CITY           SKY/WX    TMP DP  RH WIND       PRES   REMARKS
LAKE CHARLES   PTCLDY    79  74  84 SE3       29.98R
LAFAYETTE      PTCLDY    79  74  84 CALM      29.99R
PATTERSON        N/A     77  75  94 E3        30.01S
SALT POINT       N/A     81  78  91 CALM      29.98R
NEW IBERIA     PTCLDY    79  75  87 CALM      29.99R
CHENAULT AIRPK PTCLDY    78  72  84 CALM      29.99R

$$

LAZ027-028-280400-
CENTRAL LOUISIANA

CITY           SKY/WX    TMP DP  RH WIND       PRES   REMARKS
FORT POLK      PTCLDY    79  73  82 CALM      29.99R
ALEXANDRIA INT PTCLDY    79  74  84 CALM      29.97R
ALEXANDRIA     PTCLDY    79  75  87 CALM      29.99R

$$

LAZ001-002-280400-
NORTHWEST LOUISIANA

CITY           SKY/WX    TMP DP  RH WIND       PRES   REMARKS
SHREVEPORT     PTCLDY    81  66  60 CALM      29.99R
BARKSDALE AFB  CLEAR     78  67  69 E3        29.99R
DTN SHREVEPORT PTCLDY    80  66  62 CALM      29.99R

$$

LAZ014-016-280400-
NORTHEAST LOUISIANA

CITY           SKY/WX    TMP DP  RH WIND       PRES   REMARKS
MONROE         CLEAR     75  71  87 CALM      30.01R
TALLULAH       CLEAR     71  69  93 CALM      30.00R

$$




USA.gov is the U.S. government's official web portal to all federal, state and local government web resources and services.